Orbital Elements at Epoch 2459000.5 (2020-May-31.0) TDB
Reference: JPL 30 (heliocentric ecliptic J2000)
Element | Value | Uncertainty (1-sigma) | Units |
e | .07163491635904534 | 4.8039e-08 | |
a | 2.8799982202186 | 1.8449e-08 | au |
q | 2.673689788599041 | 1.4004e-07 | au |
i | 12.49330338213668 | 3.7796e-06 | deg |
node | 86.31300567087555 | 2.1402e-05 | deg |
peri | 286.0479121265914 | 3.3478e-05 | deg |
M | 205.7944104292404 | 2.804e-05 | deg |
tp | 2459765.188169495947 (2022-Jul-04.68816950) | 0.00014094 | TDB |
period | 1785.199497533266 4.89 | 1.7154e-05 4.697e-08 | d yr |
n | .2016581342855165 | 1.9377e-09 | deg/d |
Q | 3.086306651838159 | 1.9771e-08 | au |
|
| | Orbit Determination Parameters
Additional Information
|